OSCAR 7 (AO-7)
1 07530U 74089B 21173.94434806 -.00000046 00000-0 31540-6 0 9995
2 07530 101.8540 148.4412 0012425 13.6362 172.3991 12.53649217132418


Ligne 0
Le nom commun de l'objetOSCAR 7 (AO-7)
Ligne 1
Numéro de catalogue satellite07530U
Désignateur international74089B
Année de lancement74
Numéro de lancement dans l'année089
Object du lancementB
Époque (année)21
Époque (Jour de l'année en UTC)173.94434806
1ère dérivée du mouvement moyen-.00000046
2ème dérivée du mouvement moyen 00000-0
B * Terme de glissement 31540-6
Type de jeu d'éléments0
Numéro d'élément 999
Ligne 2
Numéro de catalogue satellite07530
Inclinaison de l'orbite (degrés)101.8540
Ascension droite du nœud ascendant (degrés)148.4412
Excentricité0012425
Argument du Périgée (degrés) 13.6362
Anomalie moyenne (degrés)172.3991
Mouvement moyen (révolutions / jour)12.53649217
Numéro de révolution à l'époque13241
Valeurs déduites
Période Orbitale (en minutes)114.9 min.
Demi-grand axe (en kilomètres)7827.4 Km
Altitude à l‘Apogée (en kilomètres)1466.1 Km
Altitude au Périgée (en kilomètres)1446.7 Km

* Sources des TLE's : Celestrack